• Join FlightAware (Why Join?)
  • Login
  • US Flag 
02:33PM EDT


 

Airport Tracker/Info


-or-


 

Live Flight TrackerFlight Track Log ✈ C-GRJR ✈ 17-Jun-2013 ✈ KHGR - CYSN

Flight Track Log - Related Links

Times and Time Zones

All times are in EDT time to prevent confusion due to time zone crossing. See the C-GRJR flight status page for this flight to view local times or setup timezone preferences in your user account.

Time Position Orientation Groundspeed Altitude Reporting Facility
EDT Latitude Longitude Course Direction KTS MPH feet Rate Location/Type
10:36PM 39.7025 -77.7600 271° West 380 437 1,800  Level Washington Center
10:37PM 39.7036 -77.8167 271° West 369 425 4,200 2,340 Climbing Washington Center
10:38PM 39.7406 -77.8475 327° Northwest 175 201 6,600 2,100 Climbing Washington Center
10:40PM 39.8375 -77.8983 338° Northwest 173 199 10,800 2,040 Climbing Cleveland Center
10:41PM 39.8922 -77.9258 339° North 195 224 12,900 2,100 Climbing Cleveland Center
10:42PM 39.9514 -77.9561 339° North 213 245 15,100 2,040 Climbing Cleveland Center
10:43PM 40.0083 -77.9811 341° North 213 245 17,000 1,500 Climbing Cleveland Center
10:44PM 40.0758 -78.0164 338° Northwest 220 253 18,200 1,320 Climbing Cleveland Center
10:45PM 40.1453 -78.0436 343° North 239 275 19,700 1,500 Climbing Cleveland Center
10:46PM 40.2147 -78.0708 343° North 251 289 21,200 1,140 Climbing Cleveland Center
10:47PM 40.2861 -78.1036 341° North 256 295 22,000 900 Climbing Cleveland Center
10:48PM 40.3619 -78.1333 343° North 266 306 23,000 600 Climbing Cleveland Center
10:49PM 40.4461 -78.1686 342° North 285 328 23,200 480 Climbing Cleveland Center
10:50PM 40.5239 -78.2011 342° North 308 354 24,000 1,020 Climbing Cleveland Center
10:51PM 40.6058 -78.2367 342° North 308 354 25,300 960 Climbing Cleveland Center
10:52PM 40.6878 -78.2692 343° North 308 354 26,000 300 Climbing Cleveland Center
10:53PM 40.7761 -78.3072 342° North 314 361 26,000  Level Cleveland Center
10:54PM 40.8750 -78.3478 343° North 339 390 26,000  Level Cleveland Center
10:55PM 40.9697 -78.3886 342° North 348 400 26,000  Level Cleveland Center
10:56PM 41.0661 -78.4211 346° North 354 407 26,000  Level Cleveland Center
10:57PM 41.1628 -78.4567 345° North 354 407 26,000  Level Cleveland Center
10:58PM 41.2592 -78.4922 345° North 359 413 26,000  Level Cleveland Center
10:59PM 41.3600 -78.5250 346° North 364 419 26,000  Level Cleveland Center
11:00PM 41.4647 -78.5603 346° North 358 412 26,000  Level Cleveland Center
11:01PM 41.5614 -78.5933 346° North 358 412 26,000  Level Cleveland Center
11:02PM 41.6578 -78.6267 346° North 358 412 26,000  Level Cleveland Center
11:03PM 41.7564 -78.6597 346° North 358 412 26,000 -300 Level Cleveland Center
11:04PM 41.8506 -78.6931 345° North 358 412 25,500 -540 Descending Cleveland Center
11:05PM 41.9450 -78.7267 345° North 358 412 25,000 -600 Descending Cleveland Center
11:06PM 42.0350 -78.7575 346° North 349 402 24,300 -720 Descending Cleveland Center
11:07PM 42.1189 -78.7889 344° North 328 377 23,600 -900 Descending Cleveland Center
11:08PM 42.2028 -78.8172 346° North 311 358 22,500 -1,380 Descending Cleveland Center
11:09PM 42.2886 -78.8458 346° North 311 358 20,900 -1,680 Descending Cleveland Center
11:10PM 42.3789 -78.8797 345° North 316 364 19,200 -1,860 Descending Cleveland Center
11:11PM 42.4689 -78.9142 344° North 322 371 17,200 -1,860 Descending Cleveland Center
11:12PM 42.5444 -78.9375 347° North 321 369 15,500 -2,100 Descending Cleveland Center
11:13PM 42.6197 -78.9636 346° North 299 344 13,100 -2,340 Descending Cleveland Center
11:14PM 42.6953 -78.9900 346° North 288 331 10,900 -2,520 Descending Cleveland Center
11:15PM 42.7747 -79.0219 344° North 277 319 8,100 -2,820 Descending Cleveland Center